Regional Weather Roundup
Issued by NWS

Home | Current Version | Previous Version | Graphics & Text | Print | Product List | Glossary Off
Versions: 1 2 3 4 5 6 7 8 9 10 11 12 13 14 15 16 17 18 19 20 21 22 23 24 25 26 27 28 29 30 31 32 33 34 35 36 37 38 39 40 41 42 43 44 45 46 47 48 49 50

000
ASUS45 KABQ 211010
RWRNM
NEW MEXICO REGIONAL WEATHER ROUNDUP
NATIONAL WEATHER SERVICE ALBUQUERQUE NM
400 AM MDT SAT OCT 21 2017

NOTE: "FAIR" MEANS FEW OR NO CLOUDS BELOW 12,000 FEET AGL WITH NO
       SIGNIFICANT WEATHER OR OBSTRUCTIONS TO VISION.

      THIS PRODUCT IS RELEASED AS TWO VERSIONS.  ONE VERSION NEAR
      THE TOP OF THE HOUR CONTAINING PRELIMINARY DATA FROM ALBUQUERQUE
      AND OTHER STATIONS.  A FINAL VERSION WITH ADDITIONAL DATA IS
      ISSUED ABOUT 10 MINUTES AFTER THE HOUR.

NMZ501-503-504-510>518-211100-
NORTHWEST PLATEAU/NORTHCENTRAL MOUNTAINS

CITY           SKY/WX    TMP DP  RH WIND       PRES   REMARKS
FARMINGTON     FAIR      51  28  41 NW12      29.90R
LOS ALAMOS     FAIR      52  31  45 SW12G17   29.93S
SANTA FE       FAIR      55  34  45 W14       29.90R
TAOS           FAIR      52  31  44 W15G22    29.92S
ANGEL FIRE     FAIR      45  30  54 W24G32    29.92F

$$
NMZ402-403-502-505>509-211100-
WESTCENTRAL MOUNTAINS/SOUTHWEST MOUNTAINS

CITY           SKY/WX    TMP DP  RH WIND       PRES   REMARKS
GALLUP         FAIR      50  37  61 W16       29.96F
GRANTS         FAIR      49  34  56 S3        29.98F
SILVER CITY    MOCLDY    52  37  55 N5        29.96F

$$
NMZ407-409-411-412-211100-
SOUTHERN DESERTS

CITY           SKY/WX    TMP DP  RH WIND       PRES   REMARKS
DEMING         FAIR      62  43  49 W10       29.91R
LAS CRUCES     FAIR      65  41  42 W5        29.91F
HOLLOMAN AFB   FAIR      66  43  44 W17       29.89S
ALAMOGORDO     FAIR      68  39  34 SW10G29   29.89F
T OR C         FAIR      64  40  41 SW9       29.87F

$$
NMZ519>523-211100-
CENTRAL VALLEYS/CENTRAL HIGHLANDS

CITY           SKY/WX    TMP DP  RH WIND       PRES   REMARKS
ALBUQUERQUE    CLOUDY    60  36  40 W15       29.90F
DOUBLE EAGLE   FAIR      55  32  41 W9        29.93S
MORIARTY ARPT  FAIR      60  35  38 W20G31    29.92R
CLINES CORNERS FAIR      54  32  43 W28G37    29.92S
BELEN          CLOUDY    56  36  47 NW5       29.93R
SOCORRO        FAIR      64  34  32 NW12G21   29.88S

$$
NMZ524>526-539-540-211100-
SOUTHCENTRAL MOUNTAINS

CITY           SKY/WX    TMP DP  RH WIND       PRES   REMARKS
RUIDOSO        FAIR      55  36  47 SW25G32   29.95F

$$
NMZ527>531-211100-
NORTHEAST HIGHLANDS/NORTHEAST PLAINS

CITY           SKY/WX    TMP DP  RH WIND       PRES   REMARKS
LAS VEGAS      FAIR      53  28  38 SW21G33   29.86R
RATON          FAIR      56  29  35 W16G24    29.76R
CLAYTON        FAIR      50  42  74 W7        29.73R

$$
NMZ532>537-211100-
EASTCENTRAL PLAINS

CITY           SKY/WX    TMP DP  RH WIND       PRES   REMARKS
SANTA ROSA     FAIR      52  39  62 S3        29.79F
TUCUMCARI      FAIR      60  53  77 SW21      29.73R
CANNON AFB     FAIR      56  56 100 SW7       29.81S
CLOVIS AIRPORT FAIR      56  54  93 SW9       29.81S

$$
NMZ028-029-538-211100-
SOUTHEAST PLAINS

CITY           SKY/WX    TMP DP  RH WIND       PRES   REMARKS
ROSWELL        FAIR      56  54  93 S6        29.79S
ARTESIA        FAIR      55  55 100 S7        29.81S
CARLSBAD       FAIR      59  57  93 SE10      29.80S
HOBBS          CLOUDY    61  59  94 SW17      29.84S


$$



USA.gov is the U.S. government's official web portal to all federal, state and local government web resources and services.